User: anonymous   Login
Location: Eaton Estates
(41.3089°N, 82.0057°W)
Time: 00:36:44
(UTC+00:00)
Language:

KORONAS-FOTON - Orbit

View from above orbital plane
View from above orbital plane
View from above satellite
View from above satellite

Ground track
Ground track

The orbit data is extracted from the following two-line orbital elements,

1 33504U 09003A   21268.08591143  .00000942  00000-0  46985-4 0  9998
2 33504  82.4395 120.3558 0020328 109.3568 250.9865 15.16119721697741
Epoch (UTC): 25 September 2021 02:03:42
Eccentricity: 0.0020328
inclination: 82.4395°
perigee height: 503 km
apogee height: 531 km
right ascension of ascending node: 120.3558°
argument of perigee: 109.3568°
revolutions per day: 15.16119721
mean anomaly at epoch: 250.9865°
orbit number at epoch: 69774

The dashed part of the orbit path shows where the satellite is in the earth's shadow,  

DLR